TimeCDT,TemperatureF,Dew PointF,Humidity,Sea Level PressureIn,VisibilityMPH,Wind Direction,Wind SpeedMPH,Gust SpeedMPH,PrecipitationIn,Events,Conditions,WindDirDegrees,DateUTC
12:53 AM,75.0,72.0,90,30.06,10.0,Calm,Calm,-,N/A,,Clear,0,2013-07-22 05:53:00
1:53 AM,73.0,71.1,93,30.05,9.0,Calm,Calm,-,N/A,,Mostly Cloudy,0,2013-07-22 06:53:00
2:53 AM,75.0,72.0,90,30.03,10.0,Calm,Calm,-,N/A,,Scattered Clouds,0,2013-07-22 07:53:00
3:53 AM,73.9,71.1,91,30.03,10.0,Calm,Calm,-,N/A,,Clear,0,2013-07-22 08:53:00
4:53 AM,73.0,71.1,93,30.04,9.0,Calm,Calm,-,N/A,,Clear,0,2013-07-22 09:53:00
5:53 AM,72.0,70.0,93,30.06,8.0,Calm,Calm,-,N/A,,Partly Cloudy,0,2013-07-22 10:53:00
6:53 AM,75.0,72.0,90,30.06,7.0,Calm,Calm,-,N/A,,Clear,0,2013-07-22 11:53:00
7:53 AM,82.0,75.9,82,30.07,10.0,WSW,4.6,-,N/A,,Clear,240,2013-07-22 12:53:00
8:39 AM,82.4,75.2,79,30.09,10.0,SW,9.2,-,N/A,,Mostly Cloudy,230,2013-07-22 13:39:00
8:53 AM,82.9,75.0,77,30.07,10.0,WSW,8.1,-,N/A,,Mostly Cloudy,240,2013-07-22 13:53:00
9:24 AM,84.2,73.4,70,30.08,10.0,West,6.9,16.1,N/A,,Mostly Cloudy,260,2013-07-22 14:24:00
9:53 AM,86.0,72.0,63,30.07,10.0,West,11.5,-,N/A,,Scattered Clouds,260,2013-07-22 14:53:00
10:53 AM,87.1,73.0,63,30.06,10.0,West,8.1,17.3,N/A,,Scattered Clouds,270,2013-07-22 15:53:00
11:53 AM,90.0,72.0,55,30.04,10.0,WSW,11.5,17.3,N/A,,Mostly Cloudy,250,2013-07-22 16:53:00
12:18 PM,89.6,73.4,59,30.06,10.0,SSW,6.9,-,N/A,Thunderstorm,Mostly Cloudy,210,2013-07-22 17:18:00
12:32 PM,80.6,71.6,74,30.09,10.0,SSW,19.6,27.6,0.00,Rain-Thunderstorm,Light Rain,210,2013-07-22 17:32:00
12:38 PM,77.0,71.6,83,30.09,2.5,SSW,12.7,27.6,0.03,Rain-Thunderstorm,Rain,200,2013-07-22 17:38:00
12:41 PM,75.2,71.6,89,30.10,1.5,SW,9.2,20.7,0.06,Rain-Thunderstorm,Heavy Rain,220,2013-07-22 17:41:00
12:47 PM,75.2,73.4,94,30.10,1.0,SW,5.8,-,0.11,Rain,Heavy Rain,230,2013-07-22 17:47:00
12:48 PM,75.9,73.0,91,30.09,1.0,SW,6.9,-,0.11,Rain,Heavy Rain,220,2013-07-22 17:48:00
12:52 PM,75.2,73.4,94,30.09,1.0,South,9.2,-,0.03,Rain-Thunderstorm,Heavy Thunderstorms and Rain,190,2013-07-22 17:52:00
1:02 PM,75.2,71.6,89,30.09,2.0,South,8.1,-,0.07,Rain-Thunderstorm,Thunderstorms and Rain,180,2013-07-22 18:02:00
1:07 PM,75.2,71.6,89,30.08,3.0,South,6.9,-,0.08,Rain,Rain,180,2013-07-22 18:07:00
1:23 PM,75.2,73.4,94,30.09,4.0,SSW,9.2,-,0.08,Rain-Thunderstorm,Rain,200,2013-07-22 18:23:00
1:38 PM,75.2,73.4,94,30.07,7.0,SSW,9.2,-,0.08,Rain,Light Rain,200,2013-07-22 18:38:00
1:53 PM,75.9,73.0,91,30.06,10.0,SSW,9.2,-,0.08,Rain,Light Rain,200,2013-07-22 18:53:00
2:53 PM,79.0,73.0,82,30.07,10.0,SW,6.9,-,0.00,,Mostly Cloudy,230,2013-07-22 19:53:00
3:53 PM,79.0,73.9,84,30.06,10.0,South,5.8,-,0.00,Rain,Light Rain,180,2013-07-22 20:53:00
4:50 PM,80.6,73.4,79,30.05,10.0,South,4.6,-,0.00,,Overcast,170,2013-07-22 21:50:00
4:53 PM,80.1,73.9,81,30.04,10.0,South,4.6,-,0.00,,Overcast,170,2013-07-22 21:53:00
5:04 PM,80.6,73.4,79,30.05,10.0,South,9.2,-,0.00,Thunderstorm,Overcast,180,2013-07-22 22:04:00
5:19 PM,80.6,73.4,79,30.04,10.0,South,9.2,-,0.00,,Overcast,190,2013-07-22 22:19:00
5:31 PM,80.6,73.4,79,30.05,10.0,SSW,11.5,-,0.00,,Overcast,200,2013-07-22 22:31:00
5:46 PM,78.8,73.4,83,30.04,7.0,SSW,10.4,-,0.00,Rain-Thunderstorm,Light Rain,200,2013-07-22 22:46:00
5:53 PM,79.0,75.0,88,30.03,8.0,SSW,8.1,-,0.00,Rain-Thunderstorm,Light Rain,200,2013-07-22 22:53:00
6:01 PM,78.8,73.4,83,30.04,10.0,SSW,9.2,-,0.00,,Mostly Cloudy,200,2013-07-22 23:01:00
6:53 PM,77.0,73.0,88,30.05,10.0,SSW,9.2,-,0.00,,Overcast,210,2013-07-22 23:53:00
7:15 PM,75.2,71.6,89,30.07,10.0,WSW,11.5,26.5,0.03,Rain-Thunderstorm,Light Rain,250,2013-07-23 00:15:00
7:21 PM,75.2,71.6,89,30.07,1.8,West,13.8,23.0,0.09,Rain-Thunderstorm,Rain,260,2013-07-23 00:21:00
7:24 PM,75.2,71.6,89,30.07,1.2,West,10.4,20.7,0.12,Rain,Heavy Rain,260,2013-07-23 00:24:00
7:32 PM,75.2,71.6,89,30.08,3.0,West,12.7,-,0.12,Rain,Light Rain,260,2013-07-23 00:32:00
7:36 PM,75.2,71.6,89,30.08,4.0,West,9.2,-,0.14,Rain-Thunderstorm,Heavy Rain,260,2013-07-23 00:36:00
7:53 PM,73.9,71.1,91,30.06,6.0,West,6.9,-,0.16,Rain,Light Rain,260,2013-07-23 00:53:00
8:53 PM,73.9,72.0,93,30.07,5.0,SSW,5.8,-,0.08,Rain,Rain,210,2013-07-23 01:53:00
9:53 PM,73.9,71.1,91,30.06,10.0,SW,6.9,-,0.05,Rain,Light Rain,230,2013-07-23 02:53:00
10:53 PM,73.9,71.1,91,30.04,10.0,SW,8.1,-,0.00,,Clear,220,2013-07-23 03:53:00
11:46 PM,73.4,71.6,94,30.04,10.0,SW,4.6,-,N/A,,Partly Cloudy,220,2013-07-23 04:46:00
11:53 PM,73.0,71.1,93,30.03,10.0,SW,4.6,-,N/A,,Partly Cloudy,220,2013-07-23 04:53:00